• Processing (Info)

  • MPEC 2022-X47 : 2022 XD

    The following Minor Planet Electronic Circular may be linked-to from your own Web pages, but must not otherwise be redistributed electronically.

    A form allowing access to any MPEC is at the bottom of this page.


    Read MPEC 2022-X46 Read MPEC 2022-X48


    M.P.E.C. 2022-X47                              Issued 2022 December 3, 02:47 UT
    
         The Minor Planet Electronic Circulars contain information on unusual
             minor planets, routine data on comets and natural satellites,
             and occasional editorial announcements.  They are published
        on behalf of Division F of the International Astronomical Union by the
              Minor Planet Center, Smithsonian Astrophysical Observatory,
                              Cambridge, MA 02138, U.S.A.
    			  
                 Prepared using the Tamkin Foundation Computer Network
    
                                  MPC@CFA.HARVARD.EDU
                URL https://www.minorplanetcenter.net/    ISSN 1523-6714
    
                                     2022 XD                                 
    
    
    Observations:
         K22X00D*1C2022 12 01.10778601 22 17.857+02 59 31.27         19.58GVEX047G96
         K22X00D 1C2022 12 01.11502501 22 22.681+03 02 29.90         19.81GVEX047G96
         K22X00D 1C2022 12 01.12953801 22 32.466+03 08 34.26         19.56GVEX047G96
         K22X00D mC2022 12 01.19759101 23 18.420+03 37 25.46         19.74GVEX047I52
         K22X00D mC2022 12 01.19780701 23 18.604+03 37 31.26         19.56GVEX047I52
         K22X00D mC2022 12 01.19802501 23 18.787+03 37 36.80         19.92GVEX047I52
         K22X00D mC2022 12 01.19824201 23 18.884+03 37 41.88               VEX047I52
         K22X00D KC2022 12 01.22358 01 23 30.55 +03 47 43.3          20.5 VqEX047734
         K22X00D KC2022 12 01.22572 01 23 32.17 +03 48 37.5          19.5 VqEX047734
         K22X00D KC2022 12 01.22777 01 23 33.69 +03 49 31.2          19.6 VqEX047734
         K22X00D KC2022 12 01.23187 01 23 36.78 +03 51 18.1          19.7 VqEX047734
         K22X00D KC2022 12 02.23600601 42 43.884+12 57 33.08         19.82GVEX047I52
         K22X00D KC2022 12 02.23641401 42 44.381+12 57 49.07         18.76GVEX047I52
         K22X00D KC2022 12 02.23682201 42 44.845+12 58 05.34         19.60GVEX047I52
         K22X00D KC2022 12 03.08085102 09 44.852+24 13 56.86         18.88GVEX047I52
         K22X00D KC2022 12 03.08173802 09 46.804+24 14 48.08         18.64GVEX047I52
         K22X00D KC2022 12 03.08263002 09 48.661+24 15 39.31         18.21GVEX047I52
         K22X00D KC2022 12 03.08351702 09 50.602+24 16 30.61         18.95GVEX047I52
    
    Observer details:
    734 Farpoint Observatory, Eskridge.  Observers D. Cromer, G. Hug, D. Goodin,
        R. Valentine.  Measurer D. Cromer.  0.70-m f/3.0 reflector + CCD.
    G96 Mt. Lemmon Survey.  Observer R. A. Kowalski.  Measurers E. J. Christensen,
        D. Fay, J. B. Fazekas, D. C. Fuls, A. R. Gibbs, A. D. Grauer, H. Groeller,
        J. K. Hogan, R. A. Kowalski, S. M. Larson, G. J. Leonard, D. Rankin, R. L.
        Seaman, A. Serrano, F. C. Shelly, K. W. Wierzchos.  1.5-m reflector + 10K
        CCD.
    I52 Steward Observatory, Mt. Lemmon Station.  Observer A. Serrano.  Measurers
        E. J. Christensen, D. Fay, J. B. Fazekas, D. C. Fuls, A. R. Gibbs, A. D.
        Grauer, H. Groeller, J. K. Hogan, R. A. Kowalski, S. M. Larson, G. J.
        Leonard, D. Rankin, R. L. Seaman, A. Serrano, F. C. Shelly, K. W.
        Wierzchos.  1.0-m prime focus + CCD.
    
    Orbital elements:
    2022 XD                                                  Earth MOID = 0.0083 AU
    Epoch 2023 Feb. 25.0 TT = JDT 2460000.5                 Veres                   
    M  27.94036              (2000.0)            P               Q                  
    n   0.36349739     Peri.   10.03097     +0.19433462     -0.97797194             
    a   1.9444727      Node    68.79490     +0.89423356     +0.14469627             
    e   0.4902467      Incl.    4.68764     +0.40321258     +0.15044556             
    P   2.71           H   27.26          G   0.15           U   7                  
    Residuals in seconds of arc
    221201 G96  0.1-  0.4+    221201 I52  0.4-  0.5-    221202 I52  0.3+  0.1-
    221201 G96 (0.7-  1.5-)   221201 734 (1.1-  1.1+)   221202 I52  0.2-  0.1-
    221201 G96  0.1-  0.6-    221201 734  0.5-  0.2-    221203 I52  0.1+  0.1+
    221201 I52  0.7-  0.2-    221201 734  0.4-  0.2+    221203 I52  0.6+  0.1+
    221201 I52  0.1-  0.0     221201 734  0.4+  0.6+    221203 I52  0.4-  0.1-
    221201 I52  0.4+  0.0     221202 I52  0.2+  0.2+    221203 I52  0.2-  0.0
    
    Ephemeris:
    2022 XD                  a,e,i = 1.94, 0.49, 5                   q = 0.9912
    Date    TT    R. A. (2000) Decl.     Delta      r    Elong.  Phase     V
    2022 11 03    00 38 45.9 -20 44 56   0.1252  1.0842   134.9    40.4    24.5
    ...
    2022 11 18    00 37 19.5 -19 18 01   0.06611 1.0257   122.5    54.4    23.4
    ...
    2022 11 26    00 48 24.5 -13 29 23   0.03509 1.0055   120.7    57.6    22.1
    ...
    2022 12 02    01 37 34.4 +10 31 08   0.01352 0.9960   137.0    42.5    19.6
    2022 12 03    02 06 00.9 +23 01 29   0.01089 0.9949   145.6    34.1    18.8
    2022 12 04    03 00 13.8 +40 39 22   0.0092830.9939   152.0    27.7    18.3
    ...
    2022 12 10    11 12 20.2 +44 43 35   0.02365 0.9912   104.8    73.9    21.7
    ...
    2022 12 18    11 51 40.0 +34 22 13   0.05398 0.9957   100.9    76.0    23.6
    ...
    2023 01 02    11 58 46.3 +30 32 01   0.1096  1.0286   111.5    62.8    24.8
    
    M. P. C. Staff               (C) Copyright 2022 MPC           M.P.E.C. 2022-X47
    


    Read MPEC 2022-X46 Read MPEC 2022-X48


    MPEC number:

    Enter an MPEC number in one of the following forms:

    • 1997-B01 (the full form)
    • J97B01 (the packed version of the full form)
    • B01 (the abbreviated form)